Location: WHS+Essen
(51.3947°N, 6.9794°E)
Time: 15:46:36
(UTC+02:00)

ISS - Pass Details

Date: 23 May 2019
Orbit: 407 x 419 km, 51.6° (Epoch: 26 June)

Event Time Altitude Azimuth Distance (km) Brightness Sun altitude
Rises 23:20:04 0° 268° (W) 2,357 0.5 -12.6°
Reaches altitude 10° 23:22:10 10° 269° (W) 1,496 -0.6 -12.8°
Maximum altitude 23:25:32 84° 356° (N) 426 -3.7 -13.0°
Drops below altitude 10° 23:28:55 10° 87° (E) 1,503 -1.2 -13.3°
Enters shadow 23:29:51 - 88° (E) 1,885 -0.7 -13.4°
